Weather History for LGAV - November, 2012

Change the Weather History Date:

Sunday, November 4, 2012

  Actual Average (LGEL) Record (LGEL)
Temperature  
Mean Temperature 62 °F -  
Max Temperature 75 °F 66 °F 80 °F (2008)
Min Temperature 50 °F 52 °F 37 °F (2006)
Degree Days  
Heating Degree Days 2    
Growing Degree Days 12 (Base 50)    
Moisture  
Dew Point 54 °F    
Average Humidity 73    
Maximum Humidity 94    
Minimum Humidity 47    
Precipitation  
Precipitation 0.00 in - - ()
Sea Level Pressure  
Sea Level Pressure 30.05 in    
Wind  
Wind Speed 3 mph ()    
Max Wind Speed 10 mph    
Max Gust Speed -    
Visibility 6.2 miles    
Events      
Averages and records for this station are not official NWS values.
T = Trace of Precipitation, MM = Missing Value Source: Averaged Metar Reports

Daily Weather History Graph

Daily Weather History Graph

Search for Another Location

Airport or City:

Trip Planner

Search our weather history database for the weather conditions in past years. The results will help you decide how hot, cold, wet, or windy it might be!

Date:

Astronomy

Nov. 04, 2012 Rise Set
Actual Time 6:53 AM EET 5:21 PM EET
Civil Twilight 6:25 AM EET 5:49 PM EET
Nautical Twilight 5:54 AM EET 6:20 PM EET
Astronomical Twilight 5:23 AM EET 6:51 PM EET
Moon 9:42 PM EET (11/4) 11:23 AM EET (11/4)
Length of Visible Light 11h 23m
Length of Day
10h 28m
Waning Gibbous, 74% of the Moon is Illuminated
Nov 4
Waning Gibbous
Nov 7
Last Quarter
Nov 14
New
Nov 20
First Quarter
Nov 28
Full

Hourly Weather History & Observations

Time (EET) Temp. Dew Point Humidity Pressure Visibility Wind Dir Wind Speed Gust Speed Precip Events Conditions
12:20 AM 55.4 °F 51.8 °F 88% 30.06 in - NW 3.5 mph - N/A   Clear
12:50 AM 53.6 °F 50.0 °F 88% 30.06 in - NW 1.2 mph - N/A   Clear
1:20 AM 53.6 °F 50.0 °F 88% 30.06 in - Calm Calm - N/A   Clear
1:50 AM 53.6 °F 50.0 °F 88% 30.06 in - NW 3.5 mph - N/A   Clear
2:20 AM 55.4 °F 51.8 °F 88% 30.06 in - Calm Calm - N/A   Clear
2:50 AM 53.6 °F 50.0 °F 88% 30.06 in - NW 1.2 mph - N/A   Clear
3:20 AM 53.6 °F 51.8 °F 94% 30.06 in - WNW 2.3 mph - N/A   Clear
3:50 AM 53.6 °F 50.0 °F 88% 30.06 in - Variable 1.2 mph - N/A   Clear
4:20 AM 50.0 °F 48.2 °F 94% 30.06 in - NW 2.3 mph - N/A   Clear
4:50 AM 53.6 °F 51.8 °F 94% 30.06 in - NW 3.5 mph - N/A   Clear
5:20 AM 51.8 °F 50.0 °F 94% 30.06 in - WNW 3.5 mph - N/A   Clear
5:50 AM 51.8 °F 48.2 °F 88% 30.06 in - Calm Calm - N/A   Clear
6:20 AM 53.6 °F 50.0 °F 88% 30.06 in - WNW 2.3 mph - N/A   Clear
6:50 AM 51.8 °F 50.0 °F 94% 30.06 in - WNW 3.5 mph - N/A   Clear
7:50 AM 57.2 °F 51.8 °F 82% 30.06 in 6.2 mi West 2.3 mph - N/A   Mostly Cloudy
8:20 AM 59.0 °F 53.6 °F 82% 30.09 in 6.2 mi Variable 1.2 mph - N/A   Mostly Cloudy
8:50 AM 62.6 °F 57.2 °F 82% 30.09 in 6.2 mi Variable 1.2 mph - N/A   Mostly Cloudy
9:20 AM 66.2 °F 59.0 °F 78% 30.09 in 6.2 mi Variable 1.2 mph - N/A   Mostly Cloudy
9:50 AM 69.8 °F 59.0 °F 68% 30.09 in 6.2 mi Variable 1.2 mph - N/A   Mostly Cloudy
10:20 AM 69.8 °F 57.2 °F 64% 30.09 in 6.2 mi Variable 2.3 mph - N/A   Mostly Cloudy
10:50 AM 71.6 °F 57.2 °F 60% 30.06 in 6.2 mi South 4.6 mph - N/A   Mostly Cloudy
11:20 AM 73.4 °F 55.4 °F 53% 30.06 in 6.2 mi South 6.9 mph - N/A   Mostly Cloudy
11:50 AM 73.4 °F 55.4 °F 53% 30.06 in 6.2 mi South 6.9 mph - N/A   Mostly Cloudy
12:20 PM 73.4 °F 51.8 °F 47% 30.06 in 6.2 mi SW 6.9 mph - N/A   Mostly Cloudy
12:50 PM 73.4 °F 51.8 °F 47% 30.06 in 6.2 mi WSW 6.9 mph - N/A   Mostly Cloudy
1:20 PM 73.4 °F 51.8 °F 47% 30.04 in 6.2 mi SW 6.9 mph - N/A   Mostly Cloudy
1:50 PM 75.2 °F 55.4 °F 50% 30.04 in 6.2 mi WSW 6.9 mph - N/A   Mostly Cloudy
2:20 PM 71.6 °F 55.4 °F 57% 30.04 in 6.2 mi SSW 8.1 mph - N/A   Mostly Cloudy
2:50 PM 73.4 °F 55.4 °F 53% 30.04 in 6.2 mi SSW 8.1 mph - N/A   Mostly Cloudy
3:20 PM 73.4 °F 55.4 °F 53% 30.04 in 6.2 mi South 10.4 mph - N/A   Mostly Cloudy
3:50 PM 73.4 °F 55.4 °F 53% 30.04 in 6.2 mi SSW 6.9 mph - N/A   Mostly Cloudy
4:20 PM 71.6 °F 57.2 °F 60% 30.04 in 6.2 mi SSW 9.2 mph - N/A   Mostly Cloudy
4:50 PM 71.6 °F 57.2 °F 60% 30.04 in 6.2 mi SSW 9.2 mph - N/A   Mostly Cloudy
5:20 PM 69.8 °F 57.2 °F 64% 30.04 in 6.2 mi SSW 8.1 mph - N/A   Mostly Cloudy
5:50 PM 68.0 °F 57.2 °F 68% 30.04 in 6.2 mi SSW 6.9 mph - N/A   Mostly Cloudy
6:20 PM 68.0 °F 57.2 °F 68% 30.04 in 6.2 mi SW 5.8 mph - N/A   Scattered Clouds
6:50 PM 66.2 °F 57.2 °F 73% 30.04 in 6.2 mi SSW 4.6 mph - N/A   Scattered Clouds
7:20 PM 66.2 °F 57.2 °F 73% 30.04 in 6.2 mi WSW 2.3 mph - N/A   Scattered Clouds
7:50 PM 66.2 °F 57.2 °F 73% 30.04 in 6.2 mi Variable 1.2 mph - N/A   Scattered Clouds
8:20 PM 66.2 °F 57.2 °F 73% 30.04 in 6.2 mi West 2.3 mph - N/A   Scattered Clouds
8:50 PM 64.4 °F 57.2 °F 77% 30.04 in 6.2 mi Variable 1.2 mph - N/A   Mostly Cloudy
9:20 PM 64.4 °F 57.2 °F 77% 30.04 in 6.2 mi North 3.5 mph - N/A   Scattered Clouds
9:50 PM 66.2 °F 59.0 °F 78% 30.04 in 6.2 mi Variable 2.3 mph - N/A   Scattered Clouds
10:20 PM 66.2 °F 57.2 °F 73% 30.04 in 6.2 mi Variable 3.5 mph - N/A   Scattered Clouds
10:50 PM 64.4 °F 57.2 °F 77% 30.04 in 6.2 mi NNW 3.5 mph - N/A   Scattered Clouds
11:20 PM 64.4 °F 55.4 °F 73% 30.04 in 6.2 mi WNW 2.3 mph - N/A   Scattered Clouds
11:50 PM 64.4 °F 55.4 °F 73% 30.04 in 6.2 mi Variable 2.3 mph - N/A   Scattered Clouds